TimeCDT,TemperatureF,Dew PointF,Humidity,Sea Level PressureIn,VisibilityMPH,Wind Direction,Wind SpeedMPH,Gust SpeedMPH,PrecipitationIn,Events,Conditions,WindDirDegrees,DateUTC
12:56 AM,72.0,68.0,87,29.95,6.0,NNW,5.8,-,0.02,Rain,Light Rain,340,2013-09-11 05:56:00
1:56 AM,72.0,69.1,91,29.96,10.0,Calm,Calm,-,0.00,Thunderstorm,Mostly Cloudy,0,2013-09-11 06:56:00
2:11 AM,71.6,69.8,94,29.99,10.0,Calm,Calm,-,N/A,,Mostly Cloudy,0,2013-09-11 07:11:00
2:56 AM,70.0,68.0,93,29.97,10.0,Calm,Calm,-,N/A,,Mostly Cloudy,0,2013-09-11 07:56:00
3:03 AM,69.8,68.0,94,30.00,9.0,Calm,Calm,-,N/A,Thunderstorm,Mostly Cloudy,0,2013-09-11 08:03:00
3:18 AM,69.8,69.8,100,29.99,10.0,Calm,Calm,-,N/A,,Mostly Cloudy,0,2013-09-11 08:18:00
3:56 AM,70.0,68.0,93,29.98,9.0,Calm,Calm,-,N/A,,Overcast,0,2013-09-11 08:56:00
4:56 AM,69.1,68.0,96,29.98,8.0,Calm,Calm,-,N/A,,Overcast,0,2013-09-11 09:56:00
5:14 AM,69.8,68.0,94,30.11,9.0,West,13.8,26.5,N/A,Thunderstorm,Overcast,270,2013-09-11 10:14:00
5:49 AM,69.8,66.2,88,30.07,4.0,NNW,5.8,-,0.06,Rain,Rain,330,2013-09-11 10:49:00
5:56 AM,69.1,66.9,93,30.03,4.0,North,4.6,-,0.08,Rain,Rain,360,2013-09-11 10:56:00
6:56 AM,68.0,66.9,96,30.01,8.0,Calm,Calm,-,0.08,Rain,Light Rain,0,2013-09-11 11:56:00
7:56 AM,68.0,66.9,96,30.03,9.0,NW,5.8,-,0.00,,Clear,320,2013-09-11 12:56:00
8:56 AM,70.0,66.9,90,30.02,10.0,WSW,4.6,-,N/A,,Clear,250,2013-09-11 13:56:00
9:07 AM,69.8,66.2,88,30.05,10.0,SW,5.8,-,N/A,,Partly Cloudy,230,2013-09-11 14:07:00
9:51 AM,71.6,68.0,88,30.05,10.0,WNW,4.6,-,N/A,,Mostly Cloudy,290,2013-09-11 14:51:00
9:56 AM,71.1,66.9,87,30.03,10.0,West,4.6,-,N/A,,Mostly Cloudy,260,2013-09-11 14:56:00
10:03 AM,71.6,66.2,83,30.05,10.0,West,6.9,-,N/A,,Mostly Cloudy,280,2013-09-11 15:03:00
10:56 AM,73.0,66.9,81,30.03,10.0,West,8.1,-,N/A,,Mostly Cloudy,270,2013-09-11 15:56:00
11:56 AM,75.0,66.9,76,30.04,10.0,WSW,6.9,-,N/A,,Mostly Cloudy,250,2013-09-11 16:56:00
12:56 PM,78.1,66.9,68,30.03,10.0,West,5.8,-,N/A,,Scattered Clouds,260,2013-09-11 17:56:00
1:56 PM,80.1,66.9,64,30.01,10.0,WSW,9.2,-,N/A,,Clear,250,2013-09-11 18:56:00
2:56 PM,82.0,64.9,56,30.00,10.0,WNW,10.4,-,N/A,,Clear,290,2013-09-11 19:56:00
3:56 PM,82.9,66.0,56,29.99,10.0,West,11.5,-,N/A,,Clear,280,2013-09-11 20:56:00
4:56 PM,82.0,64.9,56,29.99,10.0,West,8.1,-,N/A,,Clear,280,2013-09-11 21:56:00
5:56 PM,82.0,66.9,60,29.98,10.0,West,5.8,-,N/A,,Clear,270,2013-09-11 22:56:00
6:56 PM,78.1,66.0,66,29.97,10.0,West,4.6,-,N/A,,Clear,260,2013-09-11 23:56:00
7:56 PM,73.0,66.9,81,29.97,10.0,Calm,Calm,-,N/A,,Clear,0,2013-09-12 00:56:00
8:56 PM,70.0,66.0,87,29.99,10.0,Calm,Calm,-,N/A,,Clear,0,2013-09-12 01:56:00
9:56 PM,69.1,66.0,90,29.99,10.0,WNW,4.6,-,N/A,,Clear,290,2013-09-12 02:56:00
10:56 PM,66.0,64.0,93,29.99,10.0,WNW,3.5,-,N/A,,Clear,290,2013-09-12 03:56:00
11:56 PM,64.9,63.0,93,30.00,10.0,Calm,Calm,-,N/A,,Clear,0,2013-09-12 04:56:00